This is the latest recevied weather packets stored in our database for station/object W8RD. If no packets are shown the sender has not sent any weather packets the latest 10 day(s).
| Time | Temp. | Humidity | Pressure | Rain* | Wind** | Luminosity | Snow |
|---|---|---|---|---|---|---|---|
| 1777550114 | 23.89° C | 84% | 1013.8 hPa | 0 mm | - | 25 W/m² | - |
| 1777549512 | 23.89° C | 85% | 1013.5 hPa | 0 mm | - | 16 W/m² | - |
| 1777548911 | 23.89° C | 86% | 1013.4 hPa | 0 mm | - | 17 W/m² | - |
| 1777548311 | 23.89° C | 86% | 1013.1 hPa | 0 mm | - | 11 W/m² | - |
| 1777547709 | 23.89° C | 85% | 1013.1 hPa | 0 mm | - | 7 W/m² | - |
| 1777547109 | 23.89° C | 84% | 1013.2 hPa | 0 mm | - | 4 W/m² | - |
| 1777546508 | 23.89° C | 83% | 1012.9 hPa | 0 mm | - | 2 W/m² | - |
| 1777545908 | 23.89° C | 83% | 1012.7 hPa | 0 mm | - | 0 W/m² | - |
| 1777545307 | 23.89° C | 82% | 1012.7 hPa | 0 mm | - | 0 W/m² | - |
| 1777544707 | 23.89° C | 82% | 1012.7 hPa | 0 mm | - | 0 W/m² | - |
| 1777544105 | 23.89° C | 83% | 1012.9 hPa | 0 mm | - | 0 W/m² | - |
| 1777543504 | 23.89° C | 82% | 1012.9 hPa | 0 mm | - | 0 W/m² | - |
| 1777542902 | 23.89° C | 82% | 1013.1 hPa | 0 mm | - | 0 W/m² | - |
| 1777542301 | 23.89° C | 83% | 1013.2 hPa | 0 mm | - | 0 W/m² | - |
| 1777541696 | 23.89° C | 84% | 1013.3 hPa | 0 mm | - | 0 W/m² | - |
| 1777541094 | 23.89° C | 85% | 1012.8 hPa | 0 mm | - | 0 W/m² | - |
| 1777540489 | 23.89° C | 84% | 1012.7 hPa | 0 mm | - | 0 W/m² | - |
| 1777539886 | 23.89° C | 85% | 1012.7 hPa | 0 mm | - | 0 W/m² | - |
| 1777539284 | 23.89° C | 84% | 1012.8 hPa | 0 mm | - | 0 W/m² | - |
| 1777538683 | 23.89° C | 85% | 1012.9 hPa | 0 mm | - | 0 W/m² | - |
| 1777538080 | 23.89° C | 85% | 1012.6 hPa | 0 mm | - | 0 W/m² | - |
| 1777537478 | 23.89° C | 84% | 1012.7 hPa | 0 mm | - | 0 W/m² | - |
| 1777536876 | 23.89° C | 84% | 1013.1 hPa | 0 mm | - | 0 W/m² | - |
| 1777536270 | 23.89° C | 84% | 1013.1 hPa | 0 mm | - | 0 W/m² | - |
| 1777535668 | 23.89° C | 84% | 1013.1 hPa | 0 mm | - | 0 W/m² | - |
* Rain latest hour (hover to see other rain measurements)
** Current wind speed in m/s (hover to see current wind gust speed)